Vorticity
8 9 9 10 9 12 12 7 7 8 8 9 7 7 8 7 5 8 5 3 1 1 6 6 8 2 -1 2 3 10 11 12 8 5 4 4 4 6 7 5 6 8 7 11 8 9 8 18 13
6 6 6 5 4 5 4 4 6 8 8 8 7 9 11 2 8 11 13 5 -8 -5 1 -1 1 2 -1 4 4 8 11 12 9 5 4 4 7 7 6 4 7 7 8 9 9 4 10 7 10
4 5 5 3 4 3 4 5 5 4 4 6 6 7 1 5 3 9 8 7 -4 -1 -1 -5 4 1 2 4 2 9 10 13 12 11 9 10 7 6 5 4 6 8 7 10 8 3 9 11 9
6 3 2 5 3 4 3 3 5 5 4 4 5 3 5 6 5 6 7 5 14 8 1 -6 2 -4 -2 7 4 7 8 10 10 8 9 8 5 4 5 5 7 8 7 8 7 7 11 9 5
5 5 5 5 7 8 6 5 5 4 4 3 4 4 6 4 7 4 2 5 -0 12 -1 0 1 -3 11 8 6 6 8 10 9 6 6 7 7 7 5 5 6 8 9 10 9 8 6 12 3
4 6 7 7 8 11 9 6 8 10 4 1 5 6 3 4 6 12 3 -0 2 -0 -3 2 -1 5 11 3 9 8 3 8 10 6 7 7 9 7 5 5 8 6 10 10 8 9 7 16 10
12 7 6 6 7 11 6 9 6 7 11 4 6 5 3 4 6 6 8 7 4 3 2 -1 2 5 -1 9 1 8 6 7 10 8 8 7 7 5 5 3 3 6 11 9 9 8 9 11 6
5 5 9 8 7 8 3 6 2 1 10 9 7 3 6 4 6 6 4 5 6 3 7 4 4 -1 1 3 -2 5 10 7 4 9 10 9 7 4 6 6 2 5 12 8 8 9 7 8 7
3 3 5 3 3 7 6 7 5 6 6 9 8 5 5 6 6 5 6 5 4 3 9 3 3 15 4 13 0 7 4 -2 4 5 8 8 7 8 3 4 3 5 11 10 13 6 5 10 7
4 6 4 4 4 3 9 6 5 7 8 11 7 7 7 11 14 4 5 6 7 6 6 6 8 6 2 13 8 8 6 4 5 5 5 8 6 6 10 3 4 3 8 9 11 4 7 7 6
6 6 6 3 2 3 4 11 9 7 10 6 10 12 9 6 4 17 6 5 5 5 7 8 3 2 8 9 5 11 8 5 2 5 5 6 7 5 7 4 4 2 5 10 10 8 7 8 5
6 6 4 2 5 3 8 9 2 8 7 9 8 9 11 7 7 6 15 3 5 4 1 4 8 3 1 7 7 12 13 1 1 5 5 5 7 6 7 6 2 3 3 10 9 7 8 9 5
9 7 8 11 5 3 9 8 5 12 11 7 8 9 10 11 11 6 5 17 5 6 4 2 -7 8 5 0 5 5 10 2 4 5 5 4 5 6 8 8 3 3 4 7 10 8 8 10 8
7 8 9 2 4 2 13 11 8 3 3 4 2 3 6 10 10 12 4 3 11 6 5 3 3 -2 -11 -4 -3 -4 17 6 8 4 4 4 4 4 5 7 7 3 3 4 9 7 10 8 6
7 5 -1 9 19 9 2 3 11 14 8 4 3 2 3 4 5 12 15 2 6 7 10 3 4 2 2 6 10 8 7 16 11 5 3 3 3 3 4 4 7 6 3 4 7 8 7 7 7
8 8 18 10 6 6 11 3 7 8 6 5 5 6 5 3 5 9 21 14 7 4 5 8 6 5 3 4 4 -3 4 14 12 3 4 4 3 3 3 4 5 7 5 2 4 8 9 5 9
15 10 5 2 9 8 13 -1 1 3 5 7 5 2 3 2 2 6 4 21 18 10 3 5 5 5 8 20 -2 1 11 8 17 5 5 2 3 3 3 4 4 5 8 4 4 7 9 6 3
4 4 8 11 7 4 4 6 6 3 7 6 3 3 0 1 1 -9 -5 7 24 17 12 3 5 6 10 10 -5 0 6 -13 7 19 8 3 2 4 4 3 3 5 6 6 5 5 5 7 5
8 7 8 5 5 8 9 11 6 2 5 8 3 4 5 5 6 4 6 -7 13 20 14 17 2 5 -0 0 4 2 -7 8 1 13 12 6 3 4 5 3 3 4 3 9 5 5 5 5 5
7 8 8 7 6 10 7 3 4 8 5 3 4 2 11 20 26 42 49 35 22 25 24 8 17 6 1 1 5 1 11 7 11 9 9 6 5 4 4 4 4 4 5 3 9 4 5 5 5
9 7 5 6 4 1 12 7 -0 1 3 6 16 20 31 20 63 34 24 23 54 42 18 14 8 21 8 6 20 1 18 2 7 2 6 2 5 5 6 3 6 5 4 4 4 8 5 5 5
5 7 8 6 8 5 8 27 -15 3 5 24 29 35 20 77 -3 5 29 35 56 50 35 11 4 13 18 1 6 27 -11 -11 -5 9 8 10 7 5 6 6 4 7 5 3 4 6 7 5 5
7 6 6 5 4 7 3 7 9 11 25 27 16 22 48 -5 6 21 6 11 47 67 54 13 5 8 17 16 4 7 6 6 16 10 -0 2 3 6 -1 7 5 4 7 4 4 4 8 9 5
6 6 6 4 5 4 7 6 15 34 25 15 22 48 18 -15 34 30 3 38 54 76 45 17 5 6 8 19 17 5 -2 16 7 27 -0 2 -1 5 3 8 3 3 7 4 5 5 6 5 7
6 6 4 7 10 0 6 14 24 9 15 13 25 27 -9 54 -15 24 24 30 38 61 59 14 5 5 11 6 19 17 5 8 5 9 3 2 -1 4 2 8 3 4 4 5 4 6 6 6 6
3 3 3 10 7 4 9 14 18 4 27 22 23 0 25 22 5 11 33 21 40 60 48 18 7 0 8 6 9 11 26 8 -5 13 22 -0 -0 -3 5 2 5 6 6 5 6 5 6 6 5
6 3 7 5 3 10 8 22 30 -6 29 15 2 24 16 39 -0 22 37 34 28 15 41 13 8 5 -1 12 4 3 16 12 22 -3 -15 19 2 1 -3 8 5 4 2 6 7 5 6 6 5
3 6 9 9 10 9 15 37 17 6 37 -9 9 -30 10 9 8 18 16 23 23 31 12 9 9 9 11 10 12 5 16 11 20 7 -0 5 5 4 -3 6 7 5 3 7 4 4 7 7 4
6 3 9 3 11 4 5 42 4 1 26 1 6 -14 18 19 23 11 9 18 25 11 12 3 9 0 3 6 10 4 23 15 25 7 2 2 11 -0 1 9 15 4 4 6 4 7 8 6 7
2 8 3 6 8 11 20 16 0 12 31 23 -10 -9 31 -0 48 2 -6 14 4 11 8 4 -6 11 8 -3 12 13 3 32 11 10 13 10 23 24 1 54 14 4 4 6 8 10 7 6 8
Height
5846 5847 5848 5849 5853 5853 5852 5852 5852 5850 5851 5850 5849 5849 5849 5848 5848 5852 5850 5850 5851 5851 5850 5849 5847 5847 5847 5847 5846 5844 5842 5842 5843 5843 5842 5842 5841 5841 5841 5839 5838 5835 5832 5830 5829 5828 5827 5824 5824
5842 5843 5843 5844 5847 5848 5848 5848 5846 5845 5846 5845 5844 5845 5846 5843 5843 5844 5845 5846 5847 5847 5846 5846 5845 5844 5845 5846 5845 5843 5840 5839 5839 5839 5839 5839 5839 5839 5839 5837 5836 5833 5831 5829 5827 5826 5824 5823 5821
5838 5839 5839 5839 5842 5844 5844 5843 5842 5840 5840 5840 5840 5841 5840 5841 5839 5840 5841 5841 5842 5842 5842 5843 5841 5841 5842 5842 5842 5841 5838 5837 5836 5836 5837 5837 5837 5837 5837 5836 5834 5832 5830 5827 5826 5825 5823 5821 5819
5835 5836 5835 5836 5838 5841 5839 5838 5837 5836 5836 5836 5837 5836 5837 5837 5836 5836 5836 5837 5836 5838 5838 5838 5838 5838 5839 5838 5839 5838 5837 5835 5834 5834 5834 5835 5835 5835 5835 5834 5831 5830 5828 5826 5823 5822 5821 5818 5817
5829 5830 5828 5831 5833 5835 5834 5832 5831 5832 5831 5831 5832 5833 5833 5833 5833 5832 5832 5833 5832 5833 5833 5834 5835 5834 5836 5835 5836 5835 5835 5834 5833 5832 5832 5833 5834 5833 5833 5831 5829 5828 5826 5823 5822 5820 5819 5818 5816
5822 5823 5822 5825 5828 5829 5827 5824 5825 5826 5828 5826 5826 5827 5829 5828 5829 5829 5829 5829 5829 5829 5829 5830 5831 5831 5832 5832 5832 5832 5832 5831 5830 5830 5830 5831 5832 5831 5831 5829 5827 5826 5823 5821 5819 5818 5817 5816 5815
5816 5816 5817 5819 5821 5821 5819 5818 5819 5821 5821 5820 5819 5820 5821 5821 5822 5824 5825 5825 5825 5825 5825 5825 5826 5827 5826 5827 5828 5828 5828 5828 5828 5828 5828 5829 5830 5829 5828 5826 5825 5823 5821 5818 5817 5816 5815 5815 5815
5810 5810 5812 5812 5813 5815 5812 5813 5813 5812 5813 5813 5813 5812 5814 5814 5815 5817 5817 5818 5819 5820 5820 5820 5820 5822 5821 5821 5824 5824 5823 5824 5825 5826 5826 5826 5826 5826 5826 5825 5822 5820 5819 5817 5814 5814 5814 5814 5813
5804 5805 5805 5805 5806 5807 5805 5805 5804 5805 5805 5804 5805 5805 5805 5805 5806 5808 5809 5811 5812 5813 5815 5814 5815 5816 5817 5817 5818 5819 5818 5819 5821 5822 5823 5823 5823 5823 5823 5822 5820 5818 5817 5814 5812 5811 5812 5813 5812
5797 5797 5797 5797 5797 5797 5798 5798 5797 5797 5796 5797 5796 5796 5797 5797 5799 5800 5801 5803 5804 5805 5807 5808 5808 5809 5811 5810 5813 5814 5813 5814 5816 5817 5819 5820 5819 5819 5819 5819 5818 5816 5814 5812 5811 5809 5809 5810 5811
5790 5790 5789 5789 5788 5789 5790 5789 5788 5787 5788 5786 5788 5789 5789 5789 5788 5792 5791 5792 5795 5796 5797 5799 5800 5802 5803 5805 5807 5808 5810 5809 5810 5812 5814 5815 5815 5815 5815 5814 5814 5814 5812 5810 5808 5807 5807 5806 5808
5781 5781 5782 5781 5780 5781 5781 5779 5779 5778 5777 5778 5779 5779 5780 5780 5781 5781 5785 5784 5784 5786 5788 5789 5791 5793 5796 5797 5800 5802 5804 5804 5805 5806 5808 5810 5810 5811 5811 5810 5811 5811 5809 5808 5807 5805 5804 5804 5805
5774 5774 5773 5773 5772 5772 5772 5770 5768 5770 5769 5768 5769 5771 5772 5773 5774 5773 5772 5776 5776 5777 5777 5779 5781 5784 5786 5789 5792 5796 5797 5799 5799 5801 5802 5804 5805 5806 5806 5806 5807 5807 5806 5805 5804 5803 5802 5802 5802
5766 5765 5764 5764 5762 5762 5763 5762 5759 5759 5760 5760 5760 5761 5762 5763 5764 5764 5761 5761 5764 5766 5767 5769 5770 5773 5775 5780 5782 5788 5791 5791 5793 5795 5796 5798 5800 5800 5801 5801 5802 5803 5803 5803 5802 5801 5800 5800 5800
5756 5757 5756 5755 5754 5753 5754 5754 5754 5751 5747 5748 5749 5749 5749 5749 5751 5750 5747 5747 5746 5752 5755 5756 5759 5762 5765 5768 5773 5777 5782 5784 5786 5788 5789 5791 5793 5794 5796 5796 5798 5798 5799 5800 5799 5799 5799 5797 5797
5748 5748 5748 5748 5746 5745 5747 5750 5746 5741 5739 5739 5735 5736 5738 5737 5737 5735 5736 5735 5733 5734 5738 5741 5743 5747 5753 5756 5761 5766 5771 5775 5777 5780 5783 5784 5786 5788 5790 5791 5793 5793 5795 5795 5794 5795 5796 5794 5794
5739 5739 5739 5739 5738 5738 5739 5744 5735 5724 5725 5727 5723 5721 5721 5724 5723 5714 5716 5719 5720 5716 5719 5724 5730 5732 5739 5746 5749 5755 5761 5765 5768 5772 5775 5777 5779 5782 5784 5785 5788 5788 5789 5790 5790 5790 5791 5791 5791
5732 5732 5731 5729 5730 5730 5730 5735 5730 5712 5711 5710 5708 5704 5702 5701 5703 5698 5695 5695 5701 5702 5702 5706 5712 5719 5725 5730 5736 5743 5750 5754 5760 5764 5767 5770 5772 5775 5778 5779 5782 5783 5784 5785 5786 5786 5787 5788 5787
5724 5723 5722 5720 5718 5719 5719 5723 5717 5709 5691 5692 5688 5685 5680 5674 5674 5670 5667 5668 5670 5678 5683 5687 5692 5702 5711 5715 5722 5732 5740 5746 5751 5756 5760 5763 5766 5768 5771 5773 5775 5778 5779 5780 5781 5782 5783 5784 5784
5716 5715 5713 5710 5708 5707 5706 5711 5704 5690 5688 5676 5669 5662 5650 5640 5641 5637 5631 5628 5631 5644 5655 5665 5671 5681 5692 5703 5710 5719 5727 5736 5740 5746 5751 5755 5757 5761 5764 5767 5769 5771 5773 5775 5776 5777 5778 5779 5781
5707 5706 5704 5700 5698 5697 5695 5700 5691 5678 5673 5660 5648 5638 5626 5614 5607 5604 5599 5592 5590 5605 5624 5639 5651 5660 5673 5687 5696 5703 5710 5719 5726 5735 5742 5746 5749 5754 5757 5759 5762 5765 5767 5769 5770 5772 5773 5774 5776
5699 5698 5696 5693 5690 5688 5681 5681 5679 5666 5654 5644 5632 5619 5613 5601 5594 5585 5573 5564 5555 5565 5591 5610 5627 5641 5655 5668 5678 5687 5697 5710 5720 5731 5735 5739 5742 5745 5747 5751 5754 5757 5760 5762 5763 5766 5767 5769 5770
5692 5690 5688 5686 5682 5678 5669 5667 5661 5646 5634 5627 5616 5608 5595 5588 5577 5565 5552 5540 5533 5534 5556 5586 5606 5623 5639 5652 5665 5678 5690 5702 5709 5716 5723 5728 5733 5735 5739 5741 5746 5749 5754 5756 5757 5759 5761 5762 5764
5684 5683 5680 5676 5673 5670 5660 5652 5649 5627 5614 5610 5606 5595 5587 5578 5563 5545 5538 5525 5518 5518 5537 5566 5591 5609 5625 5640 5652 5666 5680 5689 5697 5705 5712 5719 5724 5726 5730 5733 5737 5742 5746 5749 5750 5752 5754 5756 5758
5676 5674 5669 5666 5662 5662 5651 5642 5631 5620 5613 5602 5594 5587 5581 5567 5555 5545 5531 5521 5515 5516 5535 5560 5581 5601 5617 5632 5644 5657 5669 5677 5686 5695 5702 5709 5715 5717 5721 5725 5729 5734 5737 5741 5743 5745 5747 5749 5751
5666 5665 5660 5655 5653 5653 5646 5636 5625 5617 5608 5601 5594 5585 5575 5564 5551 5544 5532 5524 5516 5517 5535 5557 5579 5597 5613 5628 5639 5649 5657 5666 5676 5684 5690 5696 5703 5709 5713 5715 5719 5723 5728 5732 5735 5737 5740 5742 5744
5658 5655 5653 5647 5642 5641 5637 5629 5622 5615 5607 5600 5592 5583 5573 5560 5551 5545 5536 5532 5528 5533 5546 5566 5583 5597 5609 5621 5630 5638 5647 5654 5665 5673 5680 5689 5693 5698 5701 5703 5709 5714 5717 5723 5726 5729 5731 5733 5735
5652 5649 5645 5639 5634 5629 5625 5616 5610 5607 5601 5596 5589 5578 5568 5559 5552 5548 5543 5540 5540 5545 5558 5571 5583 5594 5605 5613 5620 5628 5635 5643 5653 5662 5670 5676 5684 5687 5689 5690 5699 5704 5708 5713 5717 5720 5723 5724 5726
5643 5640 5637 5632 5627 5618 5612 5613 5605 5599 5594 5592 5585 5576 5567 5559 5554 5552 5550 5550 5551 5557 5563 5571 5580 5588 5596 5604 5610 5618 5624 5632 5641 5649 5654 5660 5668 5673 5677 5682 5689 5692 5698 5703 5707 5711 5714 5715 5717
5635 5632 5630 5625 5620 5612 5607 5608 5602 5596 5592 5588 5583 5576 5568 5560 5555 5553 5553 5553 5556 5559 5565 5570 5576 5582 5588 5595 5601 5607 5614 5623 5628 5634 5641 5646 5655 5660 5665 5662 5672 5680 5686 5692 5696 5701 5704 5706 5709